Location: Pian di Sc�
(43.6333°N, 11.5500°E)
Time: 12:56:40
(UTC+00:00)

Cosmos 1733 - Pass Details

Date: 07 August 2020
Orbit: 504 x 522 km, 82.5° (Epoch: 24 September)

Event Time Altitude Azimuth Distance (km) Brightness Sun altitude
Exits shadow 01:43:00 58° 299° (WNW) 607 3.4 -21.7°
Drops below altitude 10° 01:46:34 10° 1° (N) 1,753 6.6 -21.3°
Sets 01:48:45 0° 5° (N) 2,649 7.7 -21.0°
